{"data":{"norad_id":67336,"epoch":"2026-09-19T21:31:40.288512Z","epoch_age_seconds":127470,"freshness":"FRESH","line1":"1 67336U 26003C   26262.89699408  .00010055  00000+0  37428-3 0  9994","line2":"2 67336  42.9988 210.4390 0000609 209.5718 150.5100 15.27590014 38527","mean_motion":15.27590014,"eccentricity":6.09e-5,"inclination_deg":42.9988,"raan_deg":210.439,"arg_perigee_deg":209.5718,"mean_anomaly_deg":150.51,"bstar":0.00037428,"rev_number":3852,"period_min":94.26613075516,"perigee_km":482.6012662778,"apogee_km":483.43695509208,"semimajor_km":6861.1561106849,"source":"CELESTRAK","updated_at":"2026-09-20T09:00:43.510755Z"}}